Theta_e
344 346 333 329 326 328 329 330 329 332 333 332 333 334 334 334 333 330 329 329 329 330 329 326 322 319 319 321 322 325 325 328 330 331 332 333 333 333 331 330 334 333 335
341 341 333 331 328 326 328 329 329 329 329 330 331 331 331 331 329 329 330 331 331 328 323 320 318 319 323 326 328 329 330 330 330 329 329 329 330 332 334 331 331 333 335
341 339 333 333 330 328 328 328 328 329 329 329 329 329 329 329 329 332 332 332 327 320 318 318 320 324 328 329 329 330 330 330 330 329 329 329 328 331 336 333 332 332 330
340 338 334 334 334 331 327 328 328 329 329 329 328 327 328 330 332 333 333 330 321 317 318 319 322 327 328 329 329 329 329 329 330 330 331 330 330 331 339 335 334 332 330
343 339 335 336 337 334 328 328 329 329 329 328 327 327 330 331 333 334 332 326 318 318 318 320 324 326 326 326 327 328 329 329 330 331 331 331 331 333 339 337 335 334 332
343 339 336 337 339 338 330 329 330 330 329 328 327 328 330 332 334 333 327 319 317 319 319 320 322 323 323 325 328 328 329 329 331 332 332 332 331 333 337 338 336 334 332
342 339 336 337 340 340 334 330 330 330 329 328 328 328 330 332 335 333 325 319 318 319 319 320 321 321 323 326 327 328 328 330 331 332 332 332 331 331 333 336 337 332 327
341 340 337 336 338 340 337 330 330 330 329 329 328 328 329 331 334 333 328 321 320 320 319 320 321 322 324 327 328 328 330 332 332 333 333 332 331 330 332 332 329 325 321
343 343 340 337 337 338 337 331 330 330 329 328 328 328 328 330 331 332 331 325 321 320 320 321 321 322 325 327 329 331 331 334 334 332 332 331 331 330 330 328 322 321 321
346 346 344 340 338 336 336 334 331 330 329 329 329 329 329 329 329 330 329 329 325 322 322 322 323 325 327 328 330 332 332 333 333 332 331 330 329 329 326 323 322 321 319
348 347 346 342 340 337 335 334 331 330 330 330 330 330 329 329 329 328 328 329 329 328 326 327 328 332 334 331 330 333 334 332 331 330 329 325 325 325 326 324 323 321 319
345 342 339 339 337 336 335 334 331 331 332 331 330 330 330 329 329 329 329 329 330 330 330 332 334 336 337 332 332 334 332 330 328 327 326 324 326 331 331 330 328 325 322
337 340 337 336 336 336 336 333 332 331 332 331 331 331 332 331 331 329 329 328 330 333 334 334 337 338 338 334 335 333 330 328 328 325 323 322 321 329 331 330 328 325 323
339 335 336 335 335 333 333 331 331 332 332 332 332 332 333 333 332 331 329 331 334 336 338 338 338 338 336 335 333 331 330 328 324 324 323 322 318 320 327 328 328 325 323
337 336 334 335 333 332 333 332 331 331 332 332 332 332 333 332 332 331 333 334 337 338 338 339 339 339 337 334 331 330 328 325 323 320 318 317 315 315 317 323 325 325 323
337 335 333 333 332 333 331 332 331 332 332 333 332 332 333 332 332 331 336 339 342 340 340 339 339 338 335 332 330 328 327 326 323 318 314 313 314 314 315 322 324 325 325
340 337 336 332 332 332 331 332 332 332 332 333 332 334 334 334 333 334 337 340 341 340 340 340 337 334 332 331 330 328 326 323 318 313 312 314 315 314 316 316 323 324 324
341 341 339 338 335 332 331 331 332 332 332 332 333 336 337 336 338 338 338 340 341 339 338 335 333 332 332 330 327 326 324 322 316 313 312 310 312 315 315 316 322 324 324
342 342 341 341 339 337 333 332 333 332 333 333 337 340 340 339 340 341 341 341 339 336 335 334 332 331 329 327 326 325 322 319 313 313 311 311 312 312 313 314 315 316 320
343 342 342 342 342 341 336 334 333 334 334 336 340 341 342 342 342 342 342 340 337 335 337 334 331 330 329 327 324 321 316 313 312 310 311 311 310 310 310 310 310 310 310
334 340 343 342 342 341 339 336 335 336 337 339 341 341 342 343 343 343 341 338 330 329 333 332 330 328 325 322 316 314 312 311 310 310 310 310 309 309 308 309 309 309 309
334 333 338 341 341 342 341 339 338 340 340 341 341 342 343 342 342 341 341 336 330 331 332 330 329 325 320 316 314 310 311 310 310 310 310 309 310 310 309 308 308 308 308
333 332 331 336 339 340 341 340 340 341 341 342 343 342 340 340 339 341 340 338 332 334 332 328 325 322 317 314 314 312 310 310 307 310 310 309 309 309 308 308 308 307 306
333 333 332 332 334 337 339 340 341 341 341 342 342 341 341 341 340 339 339 339 333 332 329 326 323 317 315 314 312 312 311 310 311 310 309 309 309 308 308 307 307 307 306
332 332 332 332 333 335 337 339 340 341 341 341 341 341 341 341 339 337 338 336 335 333 328 324 317 315 314 314 312 311 310 309 309 308 310 308 309 308 308 308 307 307 306
334 333 333 333 334 336 338 339 340 341 342 341 340 341 341 341 337 337 337 336 331 328 324 318 315 314 313 312 312 312 311 309 308 306 307 307 308 310 309 308 307 306 306
Wind_Speed
21 28 27 25 24 24 22 22 22 23 23 23 22 21 19 17 16 16 15 14 14 13 13 13 12 12 12 11 10 10 10 9 8 7 5 4 4 2 2 1 2 3 2
31 32 28 26 24 23 23 22 21 20 20 20 20 19 18 17 15 15 14 14 13 12 12 12 12 11 10 9 9 9 9 8 6 5 5 5 6 7 7 6 4 3 3
34 34 31 27 24 23 22 21 20 19 18 18 18 17 16 15 14 14 13 12 12 12 11 12 11 10 9 8 8 7 6 5 5 6 7 7 7 7 6 9 6 4 3
36 35 32 28 25 23 22 21 20 19 18 17 17 16 15 14 13 12 11 11 10 12 12 10 10 8 7 6 6 4 4 5 7 8 10 11 9 5 4 9 7 5 3
36 36 32 28 25 22 22 20 19 18 17 16 15 15 14 13 12 11 10 10 11 11 11 9 7 6 5 4 2 1 2 5 7 9 9 10 9 6 1 6 7 6 5
34 34 31 29 25 22 21 20 19 17 16 16 15 15 14 12 12 10 9 11 11 11 9 8 6 5 3 1 1 2 4 5 6 7 8 9 7 2 2 5 7 8 7
34 33 31 28 25 22 21 21 20 18 17 16 16 15 14 13 11 10 9 10 11 10 9 8 6 4 3 2 3 5 6 7 6 7 8 9 6 3 5 7 7 6 6
36 34 31 29 26 23 22 22 21 19 18 17 16 15 14 13 12 10 10 10 10 9 9 8 6 5 5 5 5 7 8 6 6 6 7 9 9 6 6 6 5 5 5
30 33 31 29 27 25 24 24 22 20 19 18 17 16 15 14 13 11 10 10 10 10 9 8 7 6 6 7 7 8 6 5 5 7 10 13 9 6 5 5 5 6 6
27 27 30 30 30 28 27 25 23 22 21 19 17 16 15 14 13 12 11 11 10 10 9 8 8 7 8 8 8 7 6 6 8 12 14 12 5 5 5 6 8 8 8
22 26 29 31 31 30 29 28 25 24 22 20 19 18 16 16 14 13 13 11 11 11 10 9 9 8 9 10 8 7 6 8 12 11 10 3 4 7 8 9 10 10 9
29 32 33 33 34 33 31 30 28 26 24 23 21 19 18 17 16 15 14 13 11 12 11 11 10 10 11 10 8 7 7 10 9 9 5 6 7 9 11 12 11 11 10
41 34 37 36 35 34 33 32 30 29 27 25 24 21 20 18 17 16 16 16 15 14 14 14 12 12 11 9 8 7 9 9 8 5 6 8 11 12 14 14 14 13 12
30 40 39 38 37 36 35 34 32 31 30 28 27 24 22 21 19 18 18 16 16 15 16 16 15 13 10 8 7 8 10 8 7 9 10 10 9 10 13 15 16 15 13
32 38 42 41 40 39 37 35 34 33 32 30 28 26 24 23 22 20 19 18 16 16 16 16 15 13 12 10 8 8 7 7 9 10 13 13 14 13 12 13 14 15 14
37 38 41 42 42 40 39 38 35 34 33 31 29 26 26 25 24 23 21 19 18 17 16 15 15 12 10 9 8 7 8 10 13 14 14 16 15 14 15 12 13 15 14
39 40 40 41 40 41 41 40 37 34 34 32 30 27 26 25 26 25 23 19 16 19 18 15 12 11 10 8 8 7 7 10 11 10 8 9 11 12 9 9 11 13 14
30 37 43 41 40 42 42 41 39 37 35 33 32 28 26 26 27 27 24 23 14 15 12 10 12 11 10 8 6 6 8 10 10 4 8 9 9 6 7 7 8 10 13
36 38 42 41 40 41 41 40 38 37 36 35 34 31 29 28 29 28 22 16 12 11 10 12 11 10 9 7 6 9 11 11 10 5 6 7 6 6 4 3 4 6 10
39 38 39 41 41 40 38 37 37 37 38 37 35 34 33 31 28 26 23 16 5 11 21 15 13 10 8 7 6 10 9 11 3 2 5 4 5 8 9 8 9 9 8
37 42 42 35 39 39 38 38 38 41 40 39 37 35 35 32 29 26 21 18 9 19 21 16 12 10 7 4 4 4 3 6 6 6 8 6 5 6 6 8 11 13 14
40 42 38 42 39 42 40 36 29 29 35 39 36 35 31 26 26 26 30 19 5 19 13 14 14 9 6 2 1 1 2 1 2 5 2 4 6 4 3 11 13 14 14
36 41 40 41 42 42 41 36 31 28 27 25 30 27 26 25 26 30 32 21 8 13 16 17 11 9 7 4 4 3 2 3 3 2 3 8 6 6 8 10 9 10 14
32 33 37 37 38 41 41 41 38 31 26 28 27 25 22 20 24 28 26 19 11 9 18 13 9 8 6 7 4 7 6 5 3 2 3 8 10 11 11 12 15 14 17
21 25 29 31 34 41 42 41 38 33 28 21 15 17 20 19 20 22 19 17 13 16 16 11 9 7 6 6 7 7 7 7 7 4 3 6 13 15 15 14 17 19 18
10 15 19 23 29 34 37 36 34 30 26 23 24 20 22 25 21 21 19 16 16 15 14 10 8 8 8 6 7 8 8 5 5 6 5 8 9 13 17 20 18 19 21
Wind_Direction
176 171 168 163 158 152 145 140 138 138 139 143 148 148 148 147 144 140 140 137 134 133 131 129 126 119 113 109 104 100 94 86 76 68 55 43 26 318 256 221 156 135 117
165 169 169 165 163 158 151 147 144 142 144 147 149 149 149 148 146 144 143 139 137 136 137 132 126 121 115 109 106 98 90 78 66 49 37 13 351 324 240 221 213 187 168
165 168 169 169 167 163 157 154 151 149 150 151 151 150 150 150 149 148 144 142 143 143 142 135 131 125 120 116 107 92 76 52 28 17 3 349 337 337 244 219 213 197 178
168 170 169 171 171 167 163 159 157 157 158 157 157 155 155 155 153 150 149 150 153 150 147 144 140 133 121 114 107 89 59 25 360 7 358 353 341 332 243 211 212 210 220
170 171 172 173 174 170 167 165 164 165 163 164 162 162 163 162 156 158 163 163 164 158 157 154 151 143 135 129 117 83 23 8 351 1 5 7 10 21 233 212 223 235 255
171 173 174 176 176 174 171 171 172 171 171 170 171 171 171 169 166 169 175 171 170 167 170 168 173 173 174 169 301 324 333 345 328 348 354 2 3 5 264 235 243 258 273
173 175 178 180 179 179 178 179 178 179 179 180 180 179 180 180 178 178 185 181 179 180 182 189 194 211 234 269 290 308 317 320 312 329 344 349 344 284 256 249 248 255 278
175 177 182 182 184 186 186 188 187 187 187 189 188 188 189 189 191 191 195 195 195 196 199 206 218 239 261 277 287 301 306 308 299 315 328 330 317 273 252 243 252 273 292
177 179 185 186 190 192 195 195 193 192 196 196 197 197 196 199 201 204 209 210 207 211 215 226 237 254 271 279 289 302 300 316 315 319 314 310 301 241 241 256 270 286 287
178 183 189 192 193 196 199 201 200 201 203 203 204 205 205 208 211 214 220 222 222 226 230 239 252 265 274 279 289 301 302 298 307 312 313 308 266 237 252 262 267 262 270
186 189 193 196 199 200 202 203 205 208 209 210 212 213 214 217 219 224 230 233 237 240 243 248 259 271 276 275 281 296 288 300 312 316 314 305 296 283 260 256 254 251 257
197 198 198 199 202 204 205 205 208 211 213 215 218 218 221 224 228 233 238 243 244 246 252 258 263 270 274 274 272 273 291 308 315 317 293 294 284 264 253 248 243 238 242
202 201 203 205 206 206 208 209 212 214 218 220 224 224 227 230 232 238 243 245 249 254 258 261 264 270 274 266 264 273 301 310 316 314 307 300 286 267 259 255 244 235 233
204 208 207 209 210 210 212 214 216 218 220 224 226 227 229 234 237 240 245 247 252 257 261 264 266 261 266 253 264 290 303 310 312 311 307 296 283 285 266 262 246 236 235
209 212 213 212 213 215 215 219 221 223 225 228 231 232 234 236 240 243 241 245 252 258 259 259 258 261 253 248 273 293 308 319 327 323 316 303 293 290 275 263 253 240 242
213 216 214 216 216 217 219 222 225 228 232 234 237 238 239 242 243 243 241 246 256 257 256 250 250 247 232 251 277 297 311 316 319 318 315 307 296 284 274 258 252 242 246
216 217 217 219 219 221 222 226 228 233 236 238 240 242 242 243 243 242 241 247 259 256 243 245 234 221 229 259 273 287 301 315 327 335 347 334 311 273 250 278 254 248 246
220 220 220 220 222 223 225 228 231 234 238 240 241 243 243 242 242 243 242 244 257 265 246 222 227 240 256 263 272 282 308 321 324 324 357 356 352 338 270 260 240 251 261
223 223 222 221 222 226 227 230 234 239 241 242 242 243 244 246 247 247 247 246 256 240 237 252 244 253 261 261 283 304 312 315 312 293 351 3 31 42 28 321 290 286 269
225 226 230 223 223 225 226 229 235 239 242 242 244 245 247 247 250 248 241 227 162 310 274 243 248 247 248 265 291 302 307 302 283 73 36 62 65 64 63 57 48 37 18
227 227 229 222 223 222 221 222 230 235 240 242 244 247 251 253 248 240 220 166 147 232 243 226 236 236 242 273 315 308 318 115 99 71 54 74 66 57 48 28 6 354 344
221 228 221 227 224 223 223 223 222 229 241 245 251 249 246 245 237 232 214 184 175 238 214 230 219 218 221 240 131 69 1 315 224 356 40 8 336 331 359 349 352 346 344
217 222 223 222 225 227 226 225 226 232 241 245 244 236 234 236 236 229 208 198 219 214 221 212 207 216 204 185 186 171 145 232 313 293 343 346 330 325 318 328 335 337 333
226 223 226 221 223 230 229 227 224 222 225 234 237 234 235 236 232 217 201 195 197 250 214 210 208 218 202 184 182 195 205 189 190 301 251 312 310 303 295 321 317 310 316
237 227 226 223 227 232 230 227 226 224 228 227 235 241 231 226 235 214 201 197 229 209 203 207 208 213 205 190 194 187 207 204 214 195 246 269 287 289 291 299 300 299 304
241 225 227 223 230 232 230 229 228 228 229 233 240 231 221 225 209 209 209 209 206 198 197 202 207 202 203 204 205 213 210 198 212 209 240 260 251 281 288 297 287 298 292